Zurück zum Katalog

METEOR 2-17 DEB

AktivPO
NORAD 35366·DEBRIS·🇷🇺 Russia

Gestartet Jan 30, 1988 von Plesetsk Cosmodrome

Loading…

Nächste Überflüge (nächste 24 Stunden)

TLE

AktuellSource: Space-Track

Epoche: Sep 12, 2026, 03:04 UTC

1 35366U 88005AA  26255.12839434  .00001356  00000-0  84829-3 0  9997
2 35366  82.5272 189.6497 0017169 342.0795  78.7659 14.03953284671969

Verfolge METEOR 2-17 DEB in Echtzeit mit AllMySat

Download on the App Store